カタログに戻る

CZ-4B R/B

運用中SSO
NORAD 29507·ROCKET BODY·🇨🇳 China

打ち上げ Oct 23, 2006 から Taiyuan Satellite Launch Center

Loading…

次のパス (今後24時間)

TLE

最新Source: Space-Track

元期: Sep 13, 2026, 17:01 UTC

1 29507U 06046C   26256.70936222  .00002666  00000-0  13149-3 0  9992
2 29507  97.5370 301.0390 0031384 337.5178  22.4678 15.18389509 88560

AllMySatでCZ-4B R/Bをリアルタイム追跡

Download on the App Store